Location: Bellerive
(46.9237°N, 7.0223°E)
Time: 13:39:06
(UTC+00:00)

Okean 3 Rocket - Pass Details

Date: 09 April 2020
Orbit: 616 x 644 km, 82.5° (Epoch: 02 June)

Event Time Altitude Azimuth Distance (km) Brightness Sun altitude
Rises 20:48:20 0° 352° (N) 2,915 7.8 -24.0°
Reaches altitude 10° 20:50:35 10° 354° (N) 2,007 6.8 -24.3°
Enters shadow 20:54:36 68° 32° (NNE) 681 3.7 -24.8°
